STARLINK-32468, 62149

Orbit data source: Space-Track

STARLINK-32468, 62149 is a payload satellite owned by SpaceX/Seattle (US) in LEO that was launched on Sat, 30 Nov 2024 UTC via an FALCON 9 launch vehicle from the Air Force Eastern Test Range (AFETR). Payload-class satellites include a variety of spacecraft equipped with specific instruments for various scientific and technological missions. These include communications satellites like Starlink; space stations such as the ISS; scientific satellites like the Hubble; Earth observation satellites from companies like Planet Labs, Umbra, and HawkEye 360; GPS; miniature CubeSats for education and research; and military/defense satellites.

Loading next visibility...
Identifier
62149, 2024-224L
Orbit
LEO
Country
Flag of USUS
Related business
Manufacturer
SpaceX/Seattle
Mission
Operational Commercial Communications
Bus & Motor
STARLINK V2M, Unknown motor
Mass
730 kg wet, ~700 kg dry
Launch date (UTC)
2024-11-30 (1 year ago)
Launch vehicle
FALCON 9
Launch site
Air Force Eastern Test Range (AFETR)
Object type
Payload
Rocket body
Debris
Shape & HBR
Box + 2 Pan, 17.7 m
Radar Cross Section
33.884 m², Large (>1 m²)

Expand to show TLE details & history
Last TLE update: 19 hours ago

TLE from 19 hours ago
0 STARLINK-32468
1 62149U 24224L   25348.83884897  .00058184  00000-0  21093-2 0  9996
2 62149  43.0045 277.2592 0001659 292.3859  67.6817 15.27549053 59340
Epoch: 2025-12-14T20:07Z
TLE epoch observation values (Epoch: 2025-12-14T20:07:56.551Z)
Latitude
-0.00003°
Longitude
-108.47247°
Altitude
482.486 km
Speed
7.626 km/s
True Right ascension
18h 29m 02s
True Declination
0° 00' 00"
Sunlit
Object was in daylight at epoch
Visualization orbit readout
Latitude
Unknown
Longitude
Unknown
Altitude
Unknown
Speed
Unknown
Apparent Right ascension
Unknown
Apparent Declination
Unknown
Sunlit
N/A
Visualization observer readout
Local Sidereal Time
13:24:38
Azimuth
Unknown
Elevation
Unknown
Doppler factor
Unknown
Orbital elements
Apogee altitude
486.225 km
Perigee altitude
483.948 km
Semi-major axis
6,863.223 km
Eccentricity
0.00017
Inclination
43.0045°
RAAN
277.2592°
Arg. of periapsis
292.3859°
True anomaly
67.69929°
Mean anomaly
67.6817°
Eccentric anomaly
67.69049°
Mean motion
3.81725 °/min
Orbital period
94.31 mins
BSTAR
0.0021093
Loading maneuver chart data...
Computing Atmospheric mass density...
Loading historical data...
Loading historical data...
Loading historical data...
Loading historical data...
Loading historical data...
Loading historical data...
Loading historical data...

Documentation

Showing up to 5 results
|